Theta_e
311 312 311 311 312 312 312 312 311 313 314 313 313 314 314 315 314 316 319 314 311 314 315 314 315 314 314 314 311 311 312 312 312 312 312 313 314 315 315 315 315 314 315 315 314 315 314 314 313 313 313 313 314 314 315 316 317 317 317 317 318 317 318 320 320 319 319 319 318 318 316 315 314 314 314 314 314 314 314 315 314 314 315 315 316 317
310 312 311 311 311 312 311 312 311 310 311 311 313 314 314 315 314 315 316 314 311 313 316 315 314 314 314 314 312 309 311 312 312 312 312 313 314 314 315 314 315 315 315 315 315 315 314 314 314 314 314 313 314 314 314 315 315 316 316 316 316 316 317 317 316 316 316 315 314 314 314 313 314 314 314 314 314 314 314 315 315 316 316 315 316 318
311 311 311 310 310 311 311 312 311 311 311 312 313 314 315 316 315 314 315 314 312 313 318 317 314 315 314 313 311 308 310 312 313 313 313 314 314 314 315 315 315 315 315 315 315 315 314 314 313 313 314 313 313 313 314 314 314 315 316 316 315 316 315 315 314 314 314 313 313 313 314 314 314 314 315 315 315 316 316 316 316 316 316 316 316 317
311 311 310 310 309 310 312 311 311 311 311 313 314 314 316 316 314 315 314 313 313 313 316 316 314 315 314 313 312 310 311 312 313 314 313 314 314 314 315 314 315 314 314 315 314 315 314 314 314 313 313 313 313 313 313 314 313 314 315 314 315 314 314 313 313 313 313 313 313 314 314 315 316 316 316 317 317 316 316 316 316 316 316 316 316 317
312 311 309 309 309 310 311 311 311 312 312 313 315 315 318 319 316 315 314 314 314 313 314 314 314 318 317 315 315 311 310 311 311 312 312 313 314 315 315 314 314 314 314 314 314 314 314 314 314 313 313 313 313 313 313 314 314 314 314 314 314 314 314 313 313 313 313 313 314 315 316 316 317 317 316 317 316 316 316 315 316 316 316 317 317 318
312 310 310 311 311 311 311 311 312 313 312 313 316 316 318 322 320 316 317 317 315 314 316 312 315 326 326 319 318 314 311 310 310 310 311 313 314 314 315 315 315 314 314 314 314 314 314 314 314 314 313 313 313 313 313 314 314 314 313 313 313 314 314 314 313 314 313 313 314 314 316 316 316 316 315 315 315 315 315 316 316 317 318 318 318 319
313 309 310 312 312 313 313 312 313 314 312 312 317 318 318 321 323 320 318 318 318 316 314 313 316 324 323 320 322 318 315 315 311 309 309 312 314 314 314 315 315 315 315 314 314 315 314 314 314 314 314 313 313 313 313 314 314 314 314 314 314 314 314 314 314 314 314 314 314 314 314 314 314 314 314 314 315 316 317 318 319 320 320 319 320 320
313 310 311 313 313 314 312 311 314 314 312 315 320 320 320 322 325 323 318 318 321 316 316 319 318 316 316 318 321 316 315 319 316 313 310 309 312 314 314 315 315 315 315 315 315 315 314 315 314 314 314 314 314 314 314 314 313 313 314 314 314 314 314 314 314 314 314 314 314 314 314 314 314 314 315 316 317 318 318 319 320 320 321 321 321 320
312 313 313 313 313 313 311 312 316 315 313 319 322 320 320 321 324 324 319 320 319 313 319 323 315 314 321 324 322 316 315 318 320 321 315 309 310 313 314 315 315 315 315 315 315 315 315 315 314 314 314 315 314 314 314 314 314 313 314 314 314 314 315 315 315 315 315 315 315 315 314 314 314 315 317 318 319 320 320 320 320 321 321 321 321 320
311 312 311 312 312 313 313 314 317 316 315 317 319 320 321 322 322 322 323 324 318 314 323 326 316 314 322 328 325 317 315 318 319 319 314 309 312 314 313 314 314 315 315 315 315 315 315 315 315 315 315 315 316 315 315 315 315 314 314 314 314 314 315 315 315 315 315 316 316 315 315 315 315 316 319 320 320 320 320 321 320 320 320 320 319 318
311 309 311 312 312 312 314 313 313 315 314 314 318 321 320 323 324 326 330 326 316 318 327 328 320 314 317 325 325 317 316 318 316 316 314 309 312 313 313 314 314 314 314 314 315 315 315 315 314 315 315 316 316 316 316 316 315 315 314 314 314 314 315 315 315 316 316 316 316 315 315 315 317 318 320 320 319 320 320 321 321 320 319 318 317 317
313 311 312 312 310 311 315 315 313 314 313 315 325 323 317 323 326 327 330 323 316 323 327 323 317 314 315 322 324 319 318 317 313 316 317 312 312 314 314 315 314 314 314 314 315 315 315 316 315 316 316 316 317 316 316 316 315 315 314 314 314 314 314 314 315 315 316 317 317 316 316 317 319 319 320 319 319 320 320 320 320 318 317 316 316 316
314 315 313 310 310 312 317 317 316 316 314 316 323 319 316 322 321 319 322 320 319 322 318 315 314 314 316 317 318 317 316 316 311 310 313 311 311 314 314 314 314 314 314 315 315 316 316 316 316 316 317 317 317 317 316 316 315 315 314 314 313 313 313 313 314 314 315 316 317 317 317 319 320 319 320 320 321 321 320 320 318 316 316 316 315 315
316 319 315 313 312 311 315 316 316 318 316 314 317 317 318 321 315 314 318 316 316 318 314 311 313 316 317 316 317 316 313 314 310 308 311 312 312 313 313 314 315 314 314 314 314 315 315 315 315 315 315 316 316 316 315 315 314 314 314 313 313 313 312 312 313 313 314 316 317 318 319 319 319 320 321 322 321 320 319 318 316 316 316 315 314 314
316 318 315 315 314 311 314 315 316 318 317 315 317 318 319 322 318 317 320 317 315 316 314 310 313 319 319 316 316 312 309 311 311 310 312 311 312 313 313 314 315 314 315 314 314 314 314 314 314 313 313 313 313 313 313 313 313 313 312 313 313 312 312 311 311 312 314 315 317 318 319 319 319 321 322 321 320 318 317 316 315 315 314 313 313 313
314 315 315 314 310 311 314 314 314 316 317 316 317 317 317 320 324 321 319 322 320 318 316 312 315 321 318 314 312 309 308 309 309 311 312 311 312 313 313 315 315 315 315 314 315 314 313 313 313 313 312 313 312 312 312 312 312 312 312 312 312 312 311 311 311 312 313 315 316 317 317 317 319 320 319 318 316 315 315 315 314 314 313 313 313 313
313 313 314 313 310 310 312 312 312 313 316 316 314 318 318 317 324 321 314 316 316 316 318 315 315 321 318 314 316 314 312 312 309 309 310 312 313 313 314 315 314 315 315 314 314 313 313 313 312 313 312 312 312 311 311 311 310 311 311 311 311 311 311 310 310 311 312 313 315 315 315 315 316 316 315 314 314 314 314 314 313 313 313 313 313 313
316 315 313 313 313 310 308 310 310 309 314 318 316 317 316 314 320 321 316 316 314 314 320 317 315 320 318 318 323 319 314 315 316 312 309 310 313 313 314 314 314 315 314 313 313 313 313 314 312 313 312 311 312 311 311 310 310 310 310 310 310 310 310 310 310 310 311 312 312 313 313 313 313 313 313 314 314 314 313 313 313 313 313 313 313 313
318 317 312 311 314 313 310 312 313 310 309 314 315 314 315 316 318 318 317 318 314 313 321 321 315 317 318 320 325 319 316 320 318 316 313 310 310 312 313 314 313 313 313 313 313 313 313 314 313 313 312 312 312 311 310 310 309 310 310 310 310 310 310 309 309 310 310 311 310 310 311 311 312 313 314 314 313 313 313 313 313 313 313 313 313 313
317 320 316 311 312 313 312 313 316 315 310 311 312 312 315 317 318 318 317 318 318 316 320 320 316 318 320 321 323 317 317 320 315 316 316 309 309 312 312 313 313 312 312 312 313 313 314 314 314 313 313 313 312 312 311 310 310 310 310 310 309 309 309 309 309 310 310 310 310 310 311 313 314 314 313 313 313 313 313 313 313 313 313 313 313 313
313 319 319 312 310 312 314 315 317 316 312 313 315 314 313 313 315 318 317 319 321 320 320 316 315 323 324 318 317 315 315 317 314 315 314 308 310 313 312 312 312 312 312 312 313 313 314 314 314 314 314 313 313 313 312 311 311 310 309 309 309 308 309 309 310 310 310 311 311 312 313 314 314 313 313 313 313 313 313 313 313 313 313 313 312 312
313 316 319 315 312 314 316 317 315 315 314 314 314 315 314 313 315 315 314 317 318 317 322 318 314 323 325 316 313 314 315 314 310 310 310 309 311 312 312 312 312 312 312 312 313 313 314 314 314 314 314 314 313 313 312 311 310 310 310 309 309 310 310 310 311 311 312 313 313 314 313 313 313 313 313 313 313 313 313 313 313 313 312 312 312 312
317 319 321 318 315 316 317 313 309 312 316 314 312 314 314 313 316 316 315 318 316 314 319 318 312 316 323 320 314 311 312 310 307 307 307 309 311 311 312 312 311 312 312 312 313 313 314 314 314 315 314 314 313 313 312 311 311 311 311 311 312 312 313 313 313 313 313 313 313 313 313 313 313 313 313 313 313 313 313 313 313 312 312 312 311 311
316 320 320 318 316 317 318 313 308 310 314 313 312 315 315 315 319 322 322 320 317 315 315 314 312 313 322 325 313 305 307 308 307 308 307 309 312 312 312 312 311 312 312 312 313 313 313 314 314 315 314 314 314 313 313 312 312 313 313 313 314 313 313 314 313 313 313 313 313 313 313 313 313 313 313 313 313 313 313 312 312 312 311 311 311 310
314 317 318 318 316 316 317 316 312 311 313 316 317 317 316 318 317 317 316 314 314 320 319 314 313 314 317 319 310 306 309 309 307 308 308 310 312 313 312 312 311 311 312 313 313 313 313 314 314 314 314 314 314 314 314 314 314 314 314 314 314 313 313 313 313 313 313 313 313 313 313 313 313 313 313 313 313 312 312 312 311 311 311 310 310 309
316 319 317 317 316 314 315 315 315 315 315 317 321 319 317 317 315 314 317 314 313 319 318 314 314 313 312 313 312 313 315 313 310 309 309 309 310 312 313 312 311 312 312 312 313 313 313 313 314 314 314 314 314 314 314 314 314 314 313 314 313 313 313 313 313 314 313 313 313 313 313 313 313 313 313 312 312 312 312 311 311 311 310 309 308 307
321 320 314 314 314 312 316 317 317 319 316 315 317 318 316 315 314 316 319 317 315 317 316 313 313 313 312 313 316 318 319 319 316 310 309 309 309 311 312 312 312 312 312 312 313 313 313 313 313 314 314 314 314 314 314 313 313 313 313 313 313 313 313 313 313 313 313 313 313 313 313 313 313 313 312 312 312 311 311 310 310 310 308 306 306 305
322 318 313 315 313 314 323 323 316 316 315 313 315 316 315 315 315 316 315 314 316 317 314 313 313 313 313 313 317 321 321 320 314 308 309 311 310 310 311 311 312 312 312 313 313 313 313 313 313 313 313 313 313 313 314 313 313 313 313 313 313 313 313 313 313 313 313 313 313 313 313 313 312 312 312 311 311 310 310 310 309 307 306 305 304 303
317 315 313 314 312 315 324 322 315 314 314 313 314 314 314 315 315 315 314 314 316 315 312 314 317 314 313 313 316 317 316 314 311 309 310 312 311 312 311 311 312 312 313 313 313 313 313 312 313 313 313 313 313 313 313 313 313 313 313 313 313 313 313 313 313 313 312 313 312 312 312 312 312 311 311 311 310 310 309 308 306 305 305 304 303 302
313 316 315 313 312 314 318 318 315 315 315 314 314 314 314 314 314 314 313 313 315 314 312 315 316 314 312 314 314 313 312 311 311 310 311 312 312 312 311 311 312 312 312 313 313 313 313 312 313 312 313 313 313 313 313 313 314 313 313 313 313 313 313 312 312 312 312 312 312 312 312 312 311 311 310 310 309 308 307 305 304 304 303 302 302 301
311 317 315 312 312 313 314 315 314 314 315 315 315 315 313 314 313 313 313 313 313 313 312 313 314 312 311 312 311 310 311 311 309 310 311 312 312 312 311 310 311 311 312 312 312 312 313 313 313 312 313 313 313 313 314 313 314 313 313 313 313 313 313 312 312 312 312 312 312 312 311 311 311 310 310 309 308 307 305 304 303 302 302 301 300 300
312 314 312 312 315 313 312 314 313 312 312 314 315 315 313 313 313 312 313 314 313 313 313 313 313 312 312 311 309 309 309 308 308 310 311 312 312 312 311 311 311 311 312 312 312 312 313 313 313 313 312 313 313 313 314 313 313 313 313 313 313 312 312 312 312 312 312 312 312 311 311 311 311 310 309 307 306 305 304 303 302 301 300 300 299 299
315 315 313 313 316 313 311 313 314 312 312 313 314 313 312 312 312 312 313 314 313 313 313 313 312 313 315 313 311 312 311 308 309 311 312 312 312 312 312 312 312 312 312 313 312 312 312 312 312 312 312 312 313 313 313 314 313 313 313 313 313 312 312 312 312 312 312 311 311 311 311 310 310 309 307 305 304 303 302 302 301 300 300 299 298 298
314 316 314 313 315 313 309 311 315 314 313 313 314 315 313 312 312 312 313 313 312 312 313 312 311 313 315 313 313 315 314 311 310 311 312 312 311 312 312 312 312 312 312 313 312 312 312 312 312 312 311 312 312 313 313 313 313 313 313 312 312 312 312 312 312 311 311 311 311 310 310 310 308 307 305 304 302 302 301 301 300 299 299 298 297 297
313 314 313 314 316 313 309 311 315 314 312 314 317 316 313 311 312 313 312 312 312 312 312 312 312 311 311 310 310 310 311 311 311 311 311 312 311 312 312 312 312 313 312 313 312 312 313 312 312 312 311 312 312 312 312 312 312 312 312 312 312 312 312 311 311 311 311 310 310 310 309 308 307 305 304 302 301 301 300 300 299 298 298 297 296 296
313 314 314 313 314 312 310 312 315 313 312 316 317 312 310 311 312 312 312 312 312 311 311 312 311 310 309 308 308 309 310 310 310 310 311 312 311 311 312 312 312 313 312 312 312 312 313 312 312 312 312 312 312 312 312 312 312 312 312 312 311 311 311 311 311 311 310 310 309 309 308 307 305 304 303 302 301 300 299 299 298 297 297 296 296 295
310 313 314 311 311 314 314 312 314 314 313 313 314 311 310 313 313 313 314 313 311 310 310 310 311 310 309 309 309 310 310 310 310 311 311 312 312 312 312 312 312 312 312 312 312 312 312 312 313 312 312 312 312 312 312 312 312 311 311 311 311 311 311 310 310 310 310 309 309 308 307 305 304 303 301 301 300 299 299 298 297 296 296 295 295 294
309 313 315 312 311 315 316 313 313 314 312 311 313 312 309 310 312 312 313 313 312 310 309 310 311 311 310 309 309 309 310 312 312 311 311 311 312 312 312 312 312 312 312 312 312 313 312 312 312 312 311 311 311 312 312 311 311 311 311 311 310 310 310 310 309 309 309 308 308 307 306 304 302 301 300 300 299 299 298 297 296 296 295 295 294 294
311 313 314 313 312 313 314 313 312 312 311 313 316 313 309 308 309 310 312 314 312 309 308 310 311 311 310 309 309 309 312 314 313 311 311 312 311 311 311 312 311 312 312 312 312 312 312 312 312 311 311 311 311 311 311 311 311 310 310 310 310 310 310 309 309 309 308 308 307 305 304 302 300 300 299 299 299 298 297 296 296 295 295 294 294 293
311 312 312 312 313 312 312 313 313 311 312 316 316 311 307 308 309 311 315 315 310 308 309 310 308 309 310 309 308 310 312 313 312 311 311 311 311 311 311 311 311 311 311 311 312 312 312 312 311 311 311 311 311 311 311 310 310 310 310 310 309 309 309 309 308 308 307 305 304 303 302 300 299 298 298 298 298 297 296 295 295 295 294 294 293 293
312 313 312 311 312 312 311 312 313 312 314 317 314 306 305 309 311 313 316 315 310 309 310 310 309 310 310 308 307 309 311 311 311 311 311 311 311 311 311 311 311 311 311 311 311 311 311 311 311 311 310 311 310 310 310 310 310 310 309 309 309 309 308 308 307 306 304 303 301 301 300 299 298 297 297 297 296 296 295 295 295 294 294 293 293 292
313 314 313 310 310 312 311 311 313 313 312 313 309 304 306 311 313 312 312 311 310 309 309 310 310 310 310 308 308 310 311 311 311 311 311 311 311 311 311 311 311 311 311 311 311 311 311 311 310 310 310 310 310 310 310 310 309 309 309 308 308 308 308 307 307 305 303 301 300 299 299 298 297 296 296 296 295 295 295 294 294 294 293 293 292 292
311 312 312 310 310 312 311 310 312 313 310 308 307 307 308 313 315 312 309 309 310 310 310 310 310 310 310 310 310 310 310 311 311 310 310 311 311 311 311 310 311 311 311 311 311 311 311 310 310 310 310 310 309 309 309 309 309 308 308 308 308 308 307 307 306 304 301 300 299 298 297 297 296 296 295 295 295 294 294 294 294 293 292 292 292 291
311 312 313 311 310 312 311 310 311 312 309 307 308 310 310 311 312 311 309 310 310 310 311 311 310 311 311 310 311 310 310 311 311 311 311 311 311 311 310 310 310 310 310 310 310 310 310 310 310 310 310 309 309 309 309 309 308 308 308 308 307 307 306 305 304 301 299 298 298 297 296 296 295 295 295 294 294 294 294 293 293 293 292 292 291 291
311 310 311 312 311 312 312 310 309 309 307 307 309 310 310 309 310 311 311 311 311 311 311 311 311 311 311 311 311 311 310 311 311 311 311 311 311 311 310 310 310 310 310 310 310 310 310 310 310 310 309 309 309 309 308 308 308 308 307 307 307 306 306 304 302 299 298 297 297 296 296 295 295 294 294 294 294 294 293 293 293 292 291 291 291 291
310 307 308 312 313 311 309 309 308 306 305 306 308 310 310 309 310 310 311 311 311 311 311 311 311 311 311 311 311 311 311 311 311 311 311 311 311 310 310 310 310 310 310 310 310 310 310 309 309 309 309 309 309 309 308 308 307 307 307 307 306 305 304 303 301 298 297 296 296 295 295 295 294 294 294 294 293 293 293 292 292 291 292 293 293 293
309 306 307 313 314 311 310 310 309 308 307 307 308 309 309 309 309 309 310 311 311 311 311 311 311 311 311 311 311 311 311 311 310 311 311 310 311 311 310 310 310 310 310 310 309 310 310 309 309 309 309 309 308 308 308 307 307 306 306 306 305 304 303 301 299 297 296 296 295 295 294 294 294 294 293 293 293 292 292 292 293 295 296 295 294 292
309 306 309 313 313 310 310 310 307 306 307 308 309 309 309 309 310 309 309 310 310 311 311 311 311 311 311 311 311 311 311 311 311 311 311 311 311 311 310 310 310 310 310 310 310 310 310 309 309 309 309 308 308 307 307 307 306 305 305 304 304 303 301 299 297 296 296 295 295 294 294 294 293 293 294 293 292 292 293 296 298 298 296 293 291 290
307 307 311 313 311 310 310 308 304 306 308 308 308 309 309 310 310 310 309 310 310 310 310 310 310 311 310 310 311 310 311 311 310 310 310 310 310 311 311 310 310 310 310 310 310 309 309 309 309 308 308 307 307 306 306 306 305 305 304 303 302 301 300 298 297 295 295 295 294 294 294 293 293 293 293 292 293 295 299 300 298 295 292 291 290 289
306 310 311 311 310 309 309 308 307 309 311 309 307 308 309 309 310 310 310 310 310 310 310 310 310 310 310 310 310 310 310 310 310 310 310 309 309 309 309 309 309 309 309 308 308 308 308 308 308 307 307 306 305 305 305 305 305 304 304 302 301 299 298 297 296 295 294 294 294 294 293 293 293 292 292 294 297 300 300 297 294 291 290 290 289 288
307 311 310 309 310 310 308 307 307 308 310 309 307 308 308 309 309 310 310 310 310 310 309 309 309 309 309 309 309 310 310 310 309 309 309 309 309 309 308 309 308 308 308 308 307 307 307 307 307 306 306 305 305 304 304 304 304 303 303 302 300 298 297 296 296 295 295 294 294 293 293 293 293 293 294 297 299 300 298 294 292 291 290 289 288 288
Wind_Speed
16 7 6 8 8 9 9 7 5 6 5 3 2 2 5 5 5 4 4 4 4 5 6 8 8 10 10 8 13 14 9 12 18 19 21 22 24 26 27 27 27 28 27 23 22 22 22 24 25 25 25 25 26 27 28 30 31 30 29 29 28 27 26 26 25 25 25 26 25 26 25 24 23 21 21 20 20 20 18 17 17 17 17 17 18 18
13 7 6 8 8 10 9 8 7 7 6 4 3 4 4 5 5 5 3 4 1 4 5 4 6 10 10 9 13 11 6 12 21 21 22 24 24 27 28 29 29 28 27 25 23 22 22 23 25 26 28 28 28 29 30 30 31 31 31 30 29 28 27 27 26 26 26 26 25 25 23 21 20 19 19 19 18 17 16 16 16 16 16 16 17 17
6 6 8 11 12 12 10 10 9 6 6 6 4 2 4 3 3 4 3 3 1 3 4 2 4 9 10 9 11 10 10 17 25 26 26 26 25 27 29 31 31 29 29 28 26 23 22 23 23 26 29 30 30 29 29 30 30 32 32 32 30 29 29 27 26 26 26 25 24 23 22 20 19 18 18 18 17 16 17 17 17 16 16 16 17 17
6 7 12 15 14 14 12 11 8 5 5 5 3 3 4 2 2 3 4 2 1 1 2 1 1 6 7 7 8 14 19 23 27 27 26 27 26 29 31 31 31 31 31 30 27 25 24 24 24 27 29 30 31 31 31 31 31 33 33 32 31 30 29 28 27 26 24 24 23 23 22 21 20 19 18 19 19 19 20 19 18 17 17 17 17 17
8 8 15 15 10 12 12 9 8 6 5 5 5 6 4 3 5 4 2 2 2 2 1 3 4 5 5 6 8 11 15 20 23 22 23 27 29 31 31 31 32 33 32 31 29 27 26 26 26 27 28 29 31 32 32 32 32 33 32 31 30 30 29 28 27 25 24 25 25 24 24 23 23 23 22 23 22 22 21 20 18 17 17 17 16 16
9 9 17 12 6 10 10 8 9 7 5 6 6 9 8 7 5 3 4 4 3 3 2 1 1 5 4 4 9 6 4 10 14 15 22 29 32 33 34 34 35 34 33 32 30 28 28 27 27 27 28 29 31 32 32 31 31 31 31 31 31 30 30 29 27 26 26 27 27 27 27 26 26 26 25 24 23 21 19 17 17 17 17 17 16 16
4 8 14 12 9 11 9 8 9 8 6 5 6 9 8 5 5 5 5 4 2 3 3 2 4 5 6 4 7 5 4 8 8 9 19 29 32 34 36 37 37 35 34 34 32 30 29 29 28 28 29 30 30 29 28 30 31 31 30 30 31 31 31 30 29 28 29 29 28 28 28 27 27 27 25 23 21 19 18 17 17 18 18 18 17 17
3 7 9 10 10 9 8 7 7 8 7 5 5 6 8 6 7 7 7 4 2 3 3 4 3 3 5 6 6 3 4 8 8 8 15 25 32 35 37 38 37 36 34 34 33 31 30 30 30 29 28 28 28 26 26 28 30 30 30 30 30 31 31 31 31 30 30 30 29 28 28 27 28 27 25 22 20 18 18 19 19 19 19 18 18 18
4 9 11 12 9 6 8 7 9 10 5 6 5 6 7 6 6 6 6 3 1 1 3 4 1 2 5 7 6 3 3 7 9 9 11 19 28 32 36 38 37 37 35 34 34 32 31 30 30 29 27 26 25 25 26 26 27 28 29 30 31 32 32 31 31 31 31 30 30 29 28 28 28 28 26 23 20 20 20 21 21 20 20 19 19 20
0 6 10 13 9 6 8 7 10 12 5 4 6 6 4 4 5 4 5 3 2 1 5 6 2 2 5 6 4 3 2 6 9 8 9 16 21 24 29 32 34 36 35 35 34 32 31 30 30 30 28 27 26 26 26 26 26 28 29 30 31 32 32 31 32 32 32 32 31 31 30 30 29 29 26 24 23 23 22 22 22 21 20 20 21 20
2 2 4 6 5 5 7 4 4 8 8 8 6 5 6 5 4 3 3 3 1 3 6 7 4 2 4 6 4 4 4 6 7 7 9 15 18 18 21 24 27 30 31 31 32 31 30 30 30 31 31 29 28 28 28 28 28 29 30 31 32 32 32 31 32 32 33 33 33 32 32 31 30 29 26 25 25 25 24 23 22 22 21 21 20 18
4 3 2 1 1 3 5 4 2 2 7 9 4 4 4 3 3 3 4 2 1 5 6 5 3 4 4 5 4 6 6 6 7 7 8 12 16 15 14 18 21 23 25 26 28 28 29 29 29 31 31 31 31 31 31 31 30 31 31 32 33 34 33 33 32 33 33 34 33 33 33 32 30 28 26 26 26 26 25 24 23 21 20 18 17 15
2 0 1 1 1 4 6 4 2 4 1 5 4 6 4 1 1 0 3 1 3 5 4 3 2 3 5 7 9 10 10 10 10 10 11 12 14 13 11 12 14 17 20 23 25 27 28 28 29 29 30 32 33 33 33 33 33 33 33 34 35 35 35 35 34 34 34 34 34 34 33 32 29 27 27 26 26 25 25 23 21 19 18 16 14 12
1 4 2 1 1 3 6 5 4 0 1 4 6 6 4 2 2 3 3 1 4 5 3 2 2 3 3 6 11 13 16 17 13 12 17 18 17 17 14 12 11 12 16 19 22 24 26 27 28 29 30 32 33 34 34 35 35 35 35 36 36 36 36 36 36 35 35 35 35 34 32 30 28 28 28 27 26 25 24 22 19 18 17 14 12 10
7 4 3 3 1 2 4 4 5 5 4 5 5 6 5 5 4 4 3 3 4 3 2 2 1 3 3 4 8 11 15 18 15 14 18 20 21 22 19 15 13 13 15 17 19 21 24 26 27 28 29 31 32 33 34 35 36 36 37 37 36 36 36 36 36 36 35 35 34 32 31 29 28 29 28 27 26 24 22 20 18 17 15 12 11 11
8 4 3 1 1 3 3 2 2 7 5 3 3 5 5 5 5 3 3 5 4 1 2 2 3 4 4 6 9 9 11 13 13 12 12 14 17 19 19 18 17 16 16 18 19 20 22 23 25 27 28 28 29 30 31 32 33 34 35 35 35 34 34 34 34 34 34 33 32 31 30 29 29 29 28 26 24 22 20 19 17 15 14 13 13 11
6 2 4 2 1 2 2 1 0 4 4 1 3 4 5 4 6 4 2 1 3 1 3 2 3 4 3 6 9 6 7 9 9 10 11 12 12 13 17 18 18 17 16 17 18 18 19 20 21 23 24 25 25 26 27 28 29 30 31 31 31 31 32 32 33 32 32 32 31 31 30 30 29 28 26 24 22 21 19 18 17 16 15 13 11 9
5 2 4 1 2 1 2 2 1 1 3 4 4 6 3 3 3 3 2 2 2 3 4 0 4 4 2 3 6 7 7 9 8 9 11 12 11 14 17 18 17 17 16 17 18 17 17 17 17 17 18 19 20 21 22 23 25 26 26 26 26 27 29 30 31 31 32 31 31 31 30 28 27 25 24 23 22 21 20 20 18 17 14 11 8 7
4 3 3 1 2 2 3 2 1 2 2 3 3 3 4 3 2 2 3 2 1 3 4 3 4 4 3 4 4 5 6 8 8 8 7 9 14 19 20 19 18 17 18 18 17 17 16 15 14 13 13 13 14 16 17 18 20 21 22 22 23 24 26 28 29 30 30 30 29 29 27 25 24 24 23 23 22 22 21 20 17 14 11 9 8 8
3 4 2 2 1 1 3 2 4 2 1 2 1 0 1 2 4 3 3 3 3 4 4 4 4 4 6 6 5 8 9 9 10 7 5 11 18 23 23 21 19 19 19 18 17 16 15 14 12 11 10 9 9 10 12 14 16 18 19 21 21 22 24 25 26 27 27 27 27 26 24 24 24 24 24 24 23 22 20 17 14 12 10 10 9 9
3 4 2 1 2 1 1 3 6 7 4 2 3 4 2 1 2 1 1 3 4 4 3 3 4 6 6 5 8 11 11 10 10 7 6 13 19 22 23 22 21 20 18 16 16 16 15 14 12 10 9 8 7 8 10 12 15 17 19 20 20 21 22 23 23 24 25 25 25 24 24 25 25 25 25 24 22 20 17 15 13 12 12 11 11 10
2 3 4 2 1 3 4 3 4 6 5 4 4 6 7 3 4 3 4 1 2 3 5 4 5 8 6 5 9 11 10 9 8 6 8 15 18 18 18 19 20 19 17 15 15 15 15 13 11 10 10 9 9 10 12 14 16 17 19 20 20 20 21 21 22 23 24 24 26 26 26 26 26 26 25 23 21 18 16 15 14 14 13 13 13 12
3 5 5 2 3 5 4 1 3 3 2 2 2 3 4 2 4 6 6 4 2 3 3 3 5 9 5 5 8 9 9 8 7 6 11 15 15 13 13 15 18 18 16 15 15 15 14 12 11 11 11 11 12 12 14 15 16 17 19 19 20 20 20 21 23 25 25 26 28 28 27 27 27 26 24 21 19 18 17 16 16 15 15 15 14 14
4 5 4 1 2 3 4 3 3 3 3 2 3 1 3 3 3 5 5 4 3 4 3 2 6 9 5 4 7 8 8 7 7 7 9 10 9 9 11 12 15 17 16 16 16 15 14 13 13 13 13 14 14 14 15 15 16 17 18 19 20 21 22 24 26 27 27 28 28 28 28 27 26 23 21 20 19 18 18 18 18 17 17 16 15 14
5 2 4 4 2 3 3 4 2 0 2 2 3 2 4 4 4 3 2 2 2 6 7 5 9 8 3 1 0 3 5 7 8 7 6 8 7 7 8 9 12 16 17 17 17 17 16 15 15 15 15 15 15 15 16 16 17 18 19 20 22 24 25 27 28 28 28 28 28 28 27 25 23 22 21 20 20 20 20 19 19 19 18 17 16 15
8 4 5 7 5 6 6 6 5 4 2 2 4 5 6 7 8 5 2 2 7 5 7 9 10 3 3 5 5 5 4 5 7 7 8 10 9 6 5 6 10 15 17 18 18 18 18 17 16 17 17 17 17 17 17 18 19 20 21 23 24 26 27 28 28 28 28 27 27 26 25 23 22 22 22 21 21 21 21 21 20 19 19 17 16 15
4 3 8 11 11 11 9 6 7 10 8 8 8 9 8 8 9 6 3 6 6 3 5 12 8 2 1 1 4 4 4 4 7 8 8 8 7 7 6 5 9 13 17 19 19 19 19 19 19 19 19 19 19 18 18 19 21 23 24 26 27 27 27 27 27 27 27 26 25 24 23 23 23 23 23 22 22 22 22 21 20 19 19 18 16 15
4 4 11 11 10 8 5 6 10 14 14 14 13 12 11 9 9 9 11 9 5 4 9 8 1 5 7 5 5 7 5 4 6 9 9 8 9 9 8 7 9 13 17 19 20 21 22 22 22 22 22 21 21 20 20 21 23 24 26 27 27 27 27 27 27 27 26 25 25 24 24 24 24 24 24 23 23 22 22 21 20 19 19 18 17 16
3 7 9 6 6 4 3 7 10 12 12 11 13 15 14 13 14 16 17 9 7 7 13 4 4 13 8 7 9 9 7 10 10 10 11 10 11 12 11 11 11 13 17 19 21 23 24 25 25 25 24 24 23 23 23 24 26 27 27 27 27 27 26 26 26 26 26 26 26 25 25 25 25 25 24 24 23 22 22 21 21 20 19 18 18 16
3 5 4 6 6 4 4 7 10 12 9 6 11 14 15 18 20 20 19 13 10 16 17 6 11 18 6 8 11 11 15 18 14 12 12 12 14 16 15 15 14 15 18 19 20 23 25 27 27 27 27 26 26 26 26 28 29 29 29 29 28 27 27 26 26 27 27 27 26 26 26 26 26 25 25 24 23 23 22 22 21 20 20 18 17 15
2 4 2 6 5 4 4 5 7 10 9 7 10 13 16 19 19 18 16 12 12 18 17 10 15 17 6 10 12 13 16 14 10 12 16 15 16 17 15 15 15 17 19 19 21 23 25 27 28 29 29 29 29 29 30 31 31 30 30 30 29 29 28 28 28 27 27 27 27 27 27 27 26 26 25 25 24 24 23 23 22 20 19 17 15 14
3 3 1 6 5 6 3 6 6 5 3 3 10 16 19 18 14 13 10 9 12 15 12 9 14 13 5 8 8 8 8 9 12 16 19 19 18 16 15 15 16 18 19 20 22 24 25 26 26 28 30 31 32 32 33 34 33 33 33 32 31 30 29 29 29 28 28 28 27 28 28 27 27 27 26 26 26 25 24 23 22 20 18 17 15 14
6 6 3 5 7 5 2 7 8 6 4 6 13 16 18 14 10 8 8 11 15 13 9 11 14 9 4 5 6 5 7 11 16 19 22 24 23 20 20 20 20 21 21 21 23 24 24 24 24 25 28 30 33 34 35 36 36 36 35 34 33 32 31 31 30 29 29 29 29 29 29 29 29 28 28 28 27 26 25 23 22 20 18 17 15 13
6 8 5 5 5 2 3 7 9 5 6 9 7 10 15 15 13 13 14 16 16 12 10 13 12 5 4 6 8 8 10 13 16 20 23 25 23 21 22 22 22 24 23 22 23 24 24 24 23 23 25 28 32 35 36 37 37 37 36 35 34 34 33 32 32 31 31 31 31 31 30 30 30 29 29 29 27 26 25 23 21 20 18 16 14 13
7 7 4 3 5 3 3 7 7 8 10 6 2 6 14 17 18 19 19 15 14 14 15 18 18 10 9 10 9 9 13 17 18 20 20 21 22 21 20 21 21 21 22 22 23 24 24 25 25 25 25 27 30 35 38 39 39 38 37 36 35 35 34 34 34 33 33 33 33 33 32 32 31 31 30 29 28 26 24 23 21 19 18 16 14 14
9 7 3 2 4 3 3 6 8 7 6 6 5 1 5 7 9 11 12 11 12 16 16 20 22 15 11 13 11 10 16 19 18 21 23 22 21 21 21 23 22 22 23 24 25 27 27 27 28 27 27 27 30 34 38 40 40 40 39 38 37 37 36 36 36 36 35 35 35 34 34 33 32 32 31 30 28 27 25 23 21 19 17 16 15 14
9 9 4 3 3 3 4 5 4 6 9 9 7 4 6 7 8 8 8 12 15 17 16 17 18 13 10 16 20 18 17 14 14 22 28 25 23 25 28 28 27 27 28 29 29 30 29 29 29 29 29 29 30 33 36 39 41 41 40 39 39 38 38 38 38 38 37 37 36 35 35 34 33 32 31 30 29 27 25 23 21 19 18 16 15 14
6 6 6 6 3 3 5 3 3 4 10 8 6 8 13 17 14 11 7 10 10 15 20 18 15 13 10 15 21 17 10 8 10 15 20 22 26 30 31 32 32 31 32 32 32 32 31 31 32 31 31 31 31 32 34 37 40 42 42 41 41 41 41 41 40 40 39 38 37 36 35 35 34 32 31 30 28 26 25 23 21 19 18 17 15 14
5 2 5 7 3 3 6 4 5 8 10 5 8 9 17 24 19 12 3 8 5 13 23 21 14 14 16 20 21 13 7 6 10 12 17 22 25 25 25 27 28 28 31 33 33 33 34 33 33 32 32 32 32 32 33 36 39 41 42 42 42 42 43 43 42 40 39 38 38 37 36 35 34 32 31 29 28 26 24 22 21 19 18 16 15 14
5 3 3 6 5 5 6 5 4 6 7 5 9 11 19 26 21 13 1 10 6 14 24 23 18 21 26 27 18 9 7 10 14 18 22 23 22 21 19 19 19 20 23 27 30 33 34 33 33 32 31 31 30 30 32 35 38 40 42 43 43 43 44 43 42 40 40 39 38 38 36 35 34 32 31 29 27 25 24 22 21 19 18 16 15 14
3 1 2 5 6 6 7 6 4 5 6 7 7 15 26 26 15 7 7 8 10 15 19 22 23 26 28 23 15 12 17 24 28 30 27 22 22 22 19 18 17 16 17 20 23 27 29 30 30 29 27 26 26 28 30 33 36 39 41 43 44 44 44 43 41 41 40 39 39 38 37 36 34 32 30 28 27 26 24 23 21 19 17 16 15 14
3 2 1 3 5 4 4 4 3 6 7 10 10 17 24 17 5 8 7 6 11 14 14 18 21 21 20 21 20 21 25 27 30 32 28 26 27 25 23 22 19 17 16 16 18 21 23 25 25 24 23 22 23 25 28 31 35 38 40 43 44 44 43 42 42 41 40 40 39 38 37 36 34 32 31 29 27 26 24 22 20 18 17 16 15 14
7 6 4 4 5 4 2 4 4 7 7 19 18 10 9 6 5 9 10 9 11 14 14 18 19 14 14 18 20 22 23 23 25 28 27 26 25 24 24 23 21 18 17 15 15 17 18 19 19 19 19 20 21 23 26 29 33 36 39 41 43 43 44 43 42 42 42 41 41 39 38 36 34 32 30 29 27 25 23 22 20 18 17 16 14 13
6 7 6 5 5 5 4 8 7 4 11 29 25 10 13 15 9 10 14 13 13 15 16 17 17 15 16 17 17 20 22 22 22 23 22 22 22 22 23 22 20 18 16 14 15 15 14 15 15 15 17 18 20 22 25 28 31 34 37 40 42 44 45 44 43 43 43 42 41 39 38 36 34 32 30 29 27 25 23 21 19 18 16 15 14 13
11 10 6 5 6 6 7 11 9 5 17 32 25 16 29 35 20 12 16 17 16 18 18 17 17 17 17 18 19 20 20 19 19 19 20 21 22 22 21 19 17 16 14 14 14 14 14 15 15 15 17 18 20 22 25 28 31 34 37 39 42 44 45 45 45 44 43 42 41 39 38 36 34 32 30 28 27 24 22 20 18 17 16 14 13 13
8 8 6 3 5 6 8 10 6 4 13 25 20 14 29 41 31 19 17 17 17 19 19 19 19 18 17 19 21 21 21 20 19 20 21 22 23 22 21 19 16 15 14 14 14 14 15 15 16 18 19 20 22 24 26 28 31 34 36 39 42 44 45 45 45 44 43 43 41 39 37 36 34 32 30 28 26 24 21 19 17 16 15 14 15 16
3 8 6 2 4 7 8 8 8 8 14 25 23 15 18 31 36 29 22 19 18 19 19 20 20 19 19 20 21 22 22 21 21 22 23 22 22 20 18 17 15 15 14 14 13 14 15 16 18 19 20 22 24 25 27 29 32 34 36 38 41 43 44 45 45 44 44 42 41 39 37 36 34 33 30 28 26 23 21 18 16 14 15 16 18 20
4 10 8 4 6 8 7 5 9 14 17 21 23 17 14 21 31 32 29 25 22 20 19 19 19 20 21 21 22 22 22 22 21 21 20 19 17 15 13 14 14 14 14 14 15 16 17 19 20 21 22 24 25 26 28 30 32 34 37 39 41 43 44 44 44 44 43 42 40 39 37 35 34 32 30 28 25 22 19 16 15 16 18 20 22 22
9 10 7 5 6 6 6 2 5 6 7 14 21 21 18 19 23 27 29 28 26 23 22 19 18 18 19 19 20 20 20 19 17 15 14 13 12 12 12 12 13 15 16 16 17 19 20 20 21 22 24 25 25 26 28 30 32 35 37 39 41 42 42 44 44 43 42 41 40 38 37 35 33 31 29 26 23 20 17 17 17 19 21 23 24 23
9 7 4 4 7 9 8 7 10 6 3 11 20 24 22 21 22 23 24 25 25 25 24 21 19 17 16 16 17 16 16 15 14 13 13 12 11 11 12 12 14 16 17 18 19 20 21 21 22 23 25 25 26 27 28 29 32 34 37 39 40 41 42 43 43 43 42 41 40 38 37 35 33 31 28 25 22 19 19 19 21 24 26 26 24 22
8 8 8 7 7 8 7 12 18 11 3 6 16 21 22 22 22 23 23 23 24 24 22 21 19 17 16 15 15 14 14 13 13 13 13 12 12 12 12 13 14 15 17 18 19 20 20 21 23 24 25 26 26 27 28 29 31 33 36 39 40 41 42 43 43 44 43 42 40 39 37 35 33 31 28 24 22 21 22 24 27 28 28 26 24 22
Wind_Direction
172 166 184 188 189 196 213 220 230 238 224 222 245 249 216 210 245 239 255 278 176 165 229 217 220 245 247 255 257 246 228 229 235 235 234 229 223 223 225 229 232 235 240 243 242 242 241 238 233 228 225 224 223 222 223 224 225 227 227 229 230 231 232 231 230 229 228 227 227 228 231 233 235 237 238 240 241 242 245 248 251 254 258 260 262 262
173 185 198 185 178 182 207 230 235 241 249 268 270 276 259 221 241 251 259 298 172 167 251 240 222 254 254 252 259 249 225 234 234 232 233 231 227 227 230 234 235 237 241 241 240 240 240 239 234 230 227 225 225 223 222 223 224 226 227 228 229 230 230 230 229 228 227 226 227 230 234 238 241 241 242 244 245 247 250 251 254 256 258 261 262 261
181 211 200 183 172 168 198 225 229 244 245 247 253 273 277 238 245 281 268 285 43 172 255 291 211 252 260 254 260 247 227 239 239 234 235 234 233 234 235 237 237 237 239 238 238 237 236 236 233 230 227 225 227 226 225 225 224 225 227 228 229 229 229 230 229 229 229 228 230 233 238 241 244 245 247 250 250 249 249 249 251 253 256 258 259 259
196 212 194 187 177 172 196 213 216 248 246 230 207 209 265 253 201 255 253 231 68 150 195 109 249 266 269 271 270 248 238 244 247 244 243 242 242 244 243 242 241 239 238 237 236 235 233 232 231 228 227 225 226 227 227 226 224 224 225 227 229 229 229 229 229 230 230 231 232 234 237 240 243 246 247 248 246 245 245 247 248 251 254 256 257 258
208 197 181 184 185 182 188 198 205 223 245 241 210 208 239 221 205 224 209 137 34 359 113 97 346 301 260 261 265 251 241 244 248 247 248 247 245 247 248 246 245 243 241 241 239 236 233 232 231 229 228 226 226 227 226 226 225 226 226 227 229 231 231 231 230 230 230 231 230 230 232 233 234 236 237 239 242 243 245 248 251 253 255 256 258 259
222 190 172 171 179 184 183 194 199 194 223 253 226 214 219 206 201 182 127 93 48 327 280 138 303 290 292 262 252 266 279 255 249 240 242 245 245 244 245 245 244 244 242 242 243 242 238 237 235 233 230 228 228 228 227 227 227 228 229 229 230 231 232 233 232 230 229 230 229 228 230 230 232 235 239 244 248 249 252 256 256 254 254 254 256 258
221 170 168 173 173 179 187 199 198 183 193 247 240 211 205 177 141 143 152 123 118 232 283 88 173 255 318 297 257 287 310 273 264 245 243 245 244 243 243 243 243 242 241 240 242 243 241 240 238 237 235 231 231 230 229 229 228 228 229 230 231 232 232 233 232 230 229 229 230 231 233 236 239 243 248 251 253 253 254 254 252 250 250 252 254 257
148 144 166 176 172 179 189 199 199 176 174 230 241 180 160 150 154 166 165 154 188 214 335 24 137 223 292 273 271 310 303 288 285 265 253 246 243 242 241 242 242 241 242 242 242 243 243 242 241 240 240 238 237 234 231 230 229 228 229 230 231 232 233 232 231 230 229 229 231 233 236 239 242 245 248 250 250 251 249 246 245 245 247 249 252 256
135 164 181 173 172 189 189 197 187 168 183 234 210 152 148 153 156 159 149 141 13 99 299 309 127 193 269 276 300 336 305 293 284 264 254 246 243 242 242 242 243 243 244 244 244 245 244 244 243 242 241 241 239 235 232 231 229 229 230 230 231 232 232 232 232 232 231 232 234 236 239 241 243 243 243 243 244 245 243 243 244 245 247 249 252 256
145 182 186 173 179 192 188 203 184 172 195 204 149 111 86 80 88 103 121 112 53 83 245 256 202 197 269 282 303 335 299 270 270 267 263 258 250 244 244 244 244 245 245 244 245 245 244 245 243 241 238 237 236 233 232 232 232 232 233 233 233 233 233 233 233 234 233 234 236 237 239 240 242 242 240 239 238 239 241 242 245 247 250 253 256 258
335 111 161 163 184 191 175 186 187 185 173 134 109 83 61 42 49 50 62 91 83 270 250 244 220 189 265 279 253 228 231 224 242 273 278 273 268 257 250 249 248 247 246 243 243 241 240 240 239 236 235 233 231 230 231 232 233 234 235 236 236 236 234 233 233 234 234 235 236 238 239 240 240 240 240 239 237 238 240 241 244 248 252 255 255 253
13 91 151 137 184 157 126 95 18 250 162 128 96 100 89 6 18 28 360 45 189 254 261 250 207 167 222 262 246 235 249 227 220 249 266 275 286 286 267 258 254 249 244 238 235 234 234 235 236 234 232 230 227 227 229 230 232 233 234 235 237 236 235 234 233 233 234 234 235 237 239 240 240 240 239 239 239 240 241 243 248 251 251 250 245 239
36 137 261 11 227 157 131 121 38 354 125 130 115 122 128 326 27 202 277 291 222 246 262 244 197 195 230 251 255 258 263 252 228 228 246 269 293 305 298 281 266 247 237 231 229 231 234 236 237 236 233 231 229 229 230 231 231 233 235 235 235 235 235 234 232 232 232 233 234 235 237 238 239 238 238 239 240 242 244 246 248 246 241 235 231 229
216 297 302 102 274 191 163 164 156 42 233 152 143 142 153 137 123 212 241 272 256 261 274 253 244 259 266 260 249 244 250 257 257 253 260 269 281 290 293 289 272 248 234 229 231 234 238 241 241 241 239 237 236 236 236 236 236 237 237 236 236 235 234 233 232 231 231 231 232 233 235 236 235 235 235 237 238 240 243 242 238 231 225 220 216 214
189 241 226 171 168 179 178 187 173 157 164 183 162 143 160 165 162 200 212 212 238 267 280 263 243 203 199 249 248 244 258 269 275 276 270 265 264 269 271 263 249 241 233 230 233 237 241 245 245 245 244 241 240 239 238 238 238 237 237 236 236 234 233 232 231 230 229 229 230 230 231 231 231 231 232 234 236 236 234 228 221 216 209 200 195 195
180 213 276 275 98 126 162 216 145 132 158 219 142 129 183 186 148 149 189 186 183 227 254 220 233 213 209 277 276 264 273 275 272 277 278 265 257 256 254 247 237 234 233 235 240 244 246 247 246 247 246 244 243 240 239 237 236 235 235 234 234 234 233 231 230 229 228 228 227 227 227 226 226 228 229 229 229 225 220 213 208 200 191 186 185 184
168 209 319 352 61 92 136 187 142 148 180 186 124 181 212 155 116 122 201 147 106 205 251 201 253 287 314 296 292 291 285 281 275 270 264 257 252 246 241 238 235 236 238 243 249 252 253 251 249 249 248 247 246 243 241 238 236 235 234 233 232 231 230 228 227 227 225 225 224 224 223 223 224 224 224 222 217 211 203 197 192 187 184 183 178 172
154 148 319 45 145 267 41 73 3 38 137 134 168 203 187 107 96 116 169 4 60 231 268 232 227 275 313 270 308 325 291 278 276 260 251 245 238 237 237 235 237 242 245 250 254 257 258 257 255 253 250 248 245 241 238 234 233 232 231 230 229 227 225 223 223 223 223 223 222 221 222 221 220 218 213 208 202 195 189 185 183 181 179 176 171 173
140 118 310 348 168 277 14 75 146 11 92 147 195 194 138 155 206 141 169 201 179 230 277 297 250 249 206 217 295 303 259 257 263 254 248 241 232 234 239 237 237 241 245 251 256 259 261 261 259 257 254 253 248 241 235 228 225 223 221 221 220 222 222 220 220 220 220 220 219 219 218 214 209 204 198 192 187 183 181 180 177 174 173 172 177 182
137 121 255 291 257 299 19 102 182 202 16 47 57 216 90 147 178 174 169 166 173 214 252 286 285 257 223 212 221 236 239 249 258 255 240 238 236 238 242 241 238 240 245 253 258 259 260 259 261 261 260 260 253 243 233 224 219 214 211 210 209 212 215 215 215 215 214 215 213 211 205 200 196 190 184 181 179 178 176 173 171 171 174 178 179 180
135 126 174 280 354 147 183 204 186 178 175 154 159 188 208 101 109 157 178 135 140 179 209 253 272 259 244 209 196 218 236 242 248 250 239 246 248 248 249 246 241 240 244 252 256 257 258 260 261 261 257 252 240 227 218 212 209 206 203 201 199 201 204 205 206 206 206 204 200 195 189 186 183 179 178 178 176 174 171 169 172 174 177 179 178 178
140 124 143 146 165 192 222 237 186 177 179 176 186 196 194 166 120 170 224 213 126 180 185 195 253 257 245 206 197 211 225 238 251 246 239 253 260 260 258 250 243 240 242 248 252 254 257 261 262 258 252 242 226 216 208 201 201 200 197 194 192 193 195 196 195 192 190 189 185 182 180 178 177 175 176 176 173 171 171 173 175 177 178 179 179 177
118 105 121 154 211 212 238 252 133 148 139 145 225 218 194 184 139 167 211 222 196 226 166 137 257 260 240 199 201 212 224 244 264 251 246 259 264 267 266 256 245 239 239 244 247 250 254 257 256 250 243 235 222 214 208 201 197 195 193 189 187 186 185 185 183 180 178 178 176 175 176 176 177 177 175 173 172 173 175 177 177 178 179 180 181 180
119 101 111 115 317 310 317 357 61 81 86 178 243 193 161 210 149 152 192 182 183 221 174 148 261 261 256 206 204 224 241 252 259 250 254 268 271 269 267 258 247 236 233 237 241 243 246 246 244 240 236 232 222 215 209 200 195 192 189 185 180 177 177 176 175 174 174 174 174 174 177 178 178 176 174 174 177 178 178 180 180 178 179 181 183 183
169 139 119 115 43 8 340 324 290 227 98 185 229 194 181 167 119 129 170 118 223 222 170 185 248 250 255 39 267 288 293 281 266 253 256 268 269 264 258 250 241 232 230 234 235 237 239 239 239 236 233 230 224 216 208 199 194 190 186 182 177 174 175 175 175 175 176 177 178 178 179 179 178 177 178 179 180 181 181 181 181 179 179 183 184 184
172 171 146 145 163 190 205 219 211 177 135 196 202 197 200 177 166 181 131 160 233 217 158 204 240 248 62 39 14 340 312 294 281 260 247 254 263 274 272 252 236 230 230 233 235 237 239 240 239 235 231 229 224 217 208 199 193 188 184 181 178 177 178 178 178 179 180 182 182 182 181 181 182 182 183 183 183 183 182 181 181 180 180 182 185 187
141 180 182 186 194 197 195 191 162 142 158 204 196 185 198 198 187 172 147 204 210 141 195 228 244 335 2 334 329 293 253 255 273 266 259 271 291 301 297 272 242 233 233 234 237 239 239 239 238 234 230 228 224 218 210 201 193 187 185 183 182 183 184 184 184 184 185 186 186 186 186 185 186 186 185 185 184 183 182 181 182 182 182 182 186 190
103 197 197 199 205 199 172 166 159 157 179 196 187 185 195 192 183 187 211 215 138 135 239 234 191 262 241 215 249 267 267 262 266 279 301 325 324 310 297 277 247 234 232 233 236 239 240 239 237 233 230 226 222 218 209 202 196 192 190 190 189 189 189 191 191 190 189 189 189 190 190 189 188 187 186 185 185 183 183 183 183 183 185 187 190 192
139 196 195 185 197 211 168 159 162 172 190 190 181 191 192 186 193 206 220 214 133 209 244 196 189 245 223 178 221 231 235 253 264 283 302 311 299 289 280 267 252 239 235 235 238 241 242 240 237 233 229 225 222 218 211 204 201 199 198 198 198 197 196 197 198 196 195 194 193 193 192 191 188 186 185 185 184 184 184 184 184 186 190 191 192 194
167 190 180 158 178 231 208 172 169 175 182 181 190 199 195 195 203 209 217 212 192 230 248 230 249 260 223 172 215 212 219 240 254 264 268 268 265 265 261 255 254 252 247 244 244 245 244 242 239 234 231 228 224 220 214 209 206 205 205 205 205 204 203 203 202 201 199 196 195 194 193 192 189 186 186 185 186 186 185 186 187 190 192 192 192 196
187 196 161 127 151 242 218 163 175 183 180 186 202 211 208 207 211 214 217 210 208 236 249 246 262 269 216 176 206 209 215 228 236 244 249 251 253 256 256 253 255 257 258 257 251 246 243 242 241 238 234 232 229 224 218 215 213 213 211 210 210 209 208 207 204 203 201 199 197 196 194 193 190 188 188 188 188 188 188 190 191 192 193 192 195 199
141 178 85 107 159 239 215 140 161 173 149 218 232 223 214 208 210 214 213 199 207 229 241 245 256 257 202 170 190 192 198 209 223 239 250 254 252 253 258 259 259 259 263 266 258 249 246 245 247 247 242 236 232 228 224 220 218 218 217 215 214 212 211 209 206 204 203 201 199 198 196 194 193 191 190 189 190 191 191 193 193 192 194 196 199 204
148 149 131 146 174 247 249 142 139 104 78 264 248 220 205 205 202 208 222 218 215 217 216 229 242 236 176 150 150 155 187 205 219 232 245 253 254 253 255 257 261 263 263 266 263 257 255 254 254 255 250 243 238 233 229 226 223 223 221 218 216 213 211 210 207 205 204 202 201 199 197 196 195 192 191 191 191 192 192 192 193 193 196 199 202 206
154 153 168 171 156 218 214 133 115 123 194 236 230 166 174 191 189 199 222 222 216 216 224 242 255 244 172 177 171 184 209 217 227 237 248 257 258 257 259 257 260 262 262 262 262 261 263 263 259 255 250 246 243 238 233 229 226 226 224 220 217 214 213 211 208 206 204 202 201 200 198 197 195 193 193 192 192 193 193 193 195 196 198 201 203 206
151 145 156 139 114 151 162 117 133 200 218 245 344 134 176 188 187 202 222 223 216 222 234 250 256 243 226 232 215 207 231 242 246 248 253 258 256 254 256 255 254 255 255 256 255 255 257 259 258 253 248 244 242 238 234 230 227 226 224 221 218 215 213 212 209 206 204 203 201 200 198 197 195 195 195 194 193 194 194 195 197 198 200 202 204 207
153 148 139 112 118 136 138 151 188 226 265 290 307 274 172 165 169 201 233 245 229 221 226 239 246 242 240 253 253 246 253 259 260 255 251 251 252 250 248 248 248 247 249 250 248 247 249 252 256 257 254 248 242 238 236 232 228 226 224 221 218 216 214 212 210 207 205 203 202 201 199 198 197 196 196 196 195 195 196 197 198 199 201 203 204 207
151 150 140 146 165 142 146 195 238 310 302 268 239 189 151 148 156 172 217 246 231 218 221 234 246 248 242 252 257 254 256 264 267 258 251 246 248 251 251 251 249 249 252 253 252 252 253 255 256 257 255 251 244 241 238 234 230 227 224 220 218 215 213 211 210 208 205 204 203 201 200 199 199 198 197 197 197 197 197 199 199 200 202 203 205 208
145 156 158 166 184 112 126 194 261 269 263 244 192 173 170 171 170 157 188 249 234 209 214 226 243 244 232 245 248 238 232 253 262 260 255 251 251 254 256 257 256 256 257 258 258 257 257 258 258 256 252 249 246 243 240 236 232 228 224 222 218 215 213 211 210 208 206 204 203 202 201 199 199 199 198 198 199 199 199 199 199 200 201 202 206 209
92 66 131 144 154 132 146 183 199 220 246 211 154 177 179 172 157 123 150 264 238 190 205 214 229 235 231 236 231 204 178 234 254 262 264 264 264 263 262 264 264 263 262 260 260 259 258 259 259 255 251 248 246 244 240 237 234 229 226 224 219 216 214 212 211 209 207 205 204 202 201 200 199 200 200 200 200 200 200 200 199 200 201 203 207 211
79 51 118 151 178 171 170 198 210 235 251 203 174 184 173 161 140 109 202 255 207 183 199 203 211 227 232 232 222 180 178 226 251 267 267 269 273 272 271 272 271 267 263 261 261 260 259 260 259 256 255 253 251 247 241 236 233 230 228 225 221 218 217 214 211 209 207 205 203 201 201 200 199 199 201 202 202 200 200 200 200 201 202 204 207 211
94 117 161 174 181 172 177 207 253 270 234 209 195 170 153 141 131 151 216 220 184 186 195 196 210 229 233 226 208 201 228 242 254 263 265 268 274 275 276 278 274 270 266 262 261 262 261 261 261 260 261 259 254 248 242 236 233 231 228 226 222 220 218 214 211 208 205 204 202 201 201 200 199 199 200 201 202 201 200 200 201 202 203 205 208 211
160 152 159 165 163 164 178 192 267 275 215 170 157 161 153 141 155 211 194 151 171 187 188 194 213 229 232 226 219 226 244 256 259 260 261 265 270 274 276 277 276 275 270 263 262 264 264 264 263 262 260 257 250 245 241 237 233 231 228 225 223 221 218 214 211 208 206 204 203 203 202 200 199 199 200 200 201 201 201 201 201 203 205 206 209 212
169 155 182 195 165 146 161 173 212 267 198 145 135 147 181 186 181 169 155 151 179 193 195 201 208 212 221 234 239 243 254 261 260 260 263 265 269 272 272 273 274 273 271 266 261 262 264 266 267 265 262 257 250 245 240 236 233 231 228 226 224 221 217 214 211 208 206 205 204 203 202 201 200 200 200 201 201 201 202 203 202 203 206 208 212 215
179 170 185 211 178 142 171 197 205 245 167 157 153 165 206 205 185 159 170 180 190 200 205 204 203 204 217 237 251 255 258 261 259 262 266 268 269 270 267 268 270 270 271 269 263 260 260 260 261 260 258 254 249 244 240 236 234 231 229 227 224 220 216 212 209 207 205 205 204 203 202 202 201 201 201 201 202 202 202 203 204 205 207 210 213 218
207 196 173 188 191 171 196 213 207 179 172 174 174 179 192 199 203 192 192 199 201 207 213 213 215 218 222 232 244 249 253 257 260 264 268 268 268 266 264 265 266 266 267 265 261 258 254 252 253 253 252 250 246 243 239 236 234 231 229 227 223 220 216 212 209 207 205 205 204 203 203 202 201 202 202 202 203 203 204 205 206 206 208 212 220 232
218 194 148 147 199 214 242 234 203 148 177 185 188 190 193 200 206 201 199 208 212 216 223 225 227 232 232 234 239 242 245 251 258 264 268 268 265 262 261 261 260 258 257 255 252 252 251 252 253 252 252 250 247 244 241 236 234 232 230 227 224 219 215 212 209 206 205 205 204 204 204 203 203 203 202 202 203 204 205 205 205 208 217 229 240 245
237 183 165 159 178 202 241 230 183 178 190 189 193 198 194 200 207 207 208 214 219 223 228 228 230 237 240 239 239 240 245 250 255 260 263 263 263 260 257 256 254 251 250 248 248 251 255 258 259 258 257 255 251 247 243 238 235 232 231 228 225 220 215 211 209 207 206 206 205 205 204 205 205 203 202 203 204 203 202 204 212 227 240 246 244 240
192 173 179 198 185 193 231 220 178 188 197 195 199 204 196 200 208 212 215 219 222 227 231 232 236 238 238 237 236 237 241 246 249 254 255 254 254 250 245 246 246 245 245 245 248 252 256 259 262 264 264 261 256 250 244 239 235 232 229 227 224 219 214 211 209 209 208 207 207 206 206 205 205 204 204 203 202 202 208 223 239 247 244 240 237 234
147 162 180 190 195 224 267 285 132 157 198 207 209 208 204 206 211 215 220 224 226 231 235 237 237 234 230 229 228 229 232 235 237 241 241 239 240 240 242 246 248 249 250 251 252 255 257 259 262 264 264 262 257 251 245 240 236 233 229 225 221 218 214 211 209 209 209 209 208 207 207 206 205 205 205 203 203 213 231 243 244 239 235 233 234 234
145 168 179 158 192 230 243 195 165 158 211 216 210 208 207 209 211 215 221 224 227 231 234 232 227 221 216 214 214 215 217 218 220 226 230 234 240 244 250 256 258 259 260 259 258 258 258 259 261 261 261 259 256 251 247 242 238 235 230 225 220 216 214 213 211 209 210 210 209 209 208 207 206 205 204 207 217 232 241 238 232 230 231 232 232 232
175 183 177 170 196 228 225 188 185 192 219 210 205 206 205 205 209 214 219 223 224 225 224 221 217 213 209 208 209 211 214 216 220 226 231 236 243 249 256 261 264 267 270 269 267 265 262 261 260 259 258 256 253 250 247 244 240 236 231 225 219 215 215 214 213 212 212 211 211 210 209 208 208 206 208 217 230 238 236 231 228 228 229 230 231 233